Home   Weather   Wood Buffalo   Past weeks

Flag for Canada Past Weather in Wood Buffalo, Alberta, Canada — Yesterday and Last 2 Weeks

36 °F

Mostly cloudy.

Feels Like: 36 °F
Forecast: 30 / 40 °F
Wind: 2 mph from North

Location: Fort Mcmurray

Current Time: Oct 27, 2016 at 4:53:14 PM

Latest Report: Oct 27, 2016 at 4:00 PM

Visibility: 9 mi

Pressure: 29.97 "Hg

Humidity: 81%

Dew Point: 30 °F

Location of Wood BuffaloLocation

Past Weather in Wood Buffalo — Graph


Wood Buffalo Temperature Yesterday

Maximum temperature yesterday: 37 °F (at 4:00 PM)
Minimum temperature yesterday: 34 °F (at 11:00 AM)
Average temperature yesterday: 36 °F

High & Low Weather Summary for the Past Weeks

High45 °F (Oct 21, 5:00 PM)100% (Oct 14, 7:45 PM)30.35 "Hg (Oct 14, 7:45 PM)
Low19 °F (Oct 13, 5:00 AM)55% (Oct 12, 8:00 PM)29.49 "Hg (Oct 17, 3:00 AM)
Average32 °F89%29.93 "Hg
* Reported Oct 12 3:00 PM — Oct 27 3:00 PM, Wood Buffalo, Weather by CustomWeather, © 2016

Note: Actual official high and low records may vary slightly from our data, if they occured in-between our weather recording intervals... More about our weather records


Wood Buffalo Weather History for the Previous 24 Hours

Scroll right to see more
Time TempWeatherWind HumidityBarometerVisibility
3:00 PM
Thu, Oct 27
36 °FOvercast.3 mph81%29.95 "Hg9 mi
2:00 PM36 °FOvercast.3 mph81%29.95 "Hg9 mi
1:00 PM36 °FOvercast.5 mph81%29.95 "Hg9 mi
12:00 PM36 °FOvercast.5 mph75%29.96 "Hg9 mi
11:00 AM34 °FOvercast.5 mph81%29.97 "Hg9 mi
10:00 AM34 °FOvercast.6 mph81%29.97 "Hg9 mi
9:00 AM32 °FOvercast.5 mph93%29.97 "Hg9 mi
8:00 AM32 °FOvercast.6 mph93%29.96 "Hg9 mi
7:00 AM32 °FOvercast.3 mph93%29.96 "Hg9 mi
6:00 AM32 °FOvercast.6 mph87%29.96 "Hg9 mi
5:00 AM32 °FOvercast.8 mph93%29.97 "Hg9 mi
4:00 AM32 °FOvercast.6 mph93%29.98 "Hg9 mi
3:00 AM32 °FOvercast.6 mph93%29.99 "Hg9 mi
2:00 AM34 °FOvercast.6 mph87%29.99 "Hg9 mi
1:00 AM34 °FOvercast.7 mph93%29.99 "Hg9 mi
12:00 AM34 °FOvercast.8 mph93%30.00 "Hg9 mi
11:00 PM
Wed, Oct 26
34 °FOvercast.5 mph93%29.99 "Hg9 mi
10:00 PM34 °FOvercast.6 mph93%29.99 "Hg9 mi
9:00 PM36 °FOvercast.6 mph87%29.99 "Hg9 mi
8:01 PM36 °FMostly cloudy.6 mph87%30.00 "Hg9 mi
7:00 PM36 °FOvercast.5 mph93%30.00 "Hg9 mi
6:00 PM36 °FMostly cloudy.6 mph87%30.00 "Hg9 mi
5:00 PM37 °FOvercast.9 mph87%30.00 "Hg9 mi
4:00 PM37 °FMostly cloudy.9 mph87%30.01 "Hg9 mi
Weather by CustomWeather, © 2016

See weather overviewHow to use our weather pages